TimeEST,TemperatureF,Dew PointF,Humidity,Sea Level PressureIn,VisibilityMPH,Wind Direction,Wind SpeedMPH,Gust SpeedMPH,PrecipitationIn,Events,Conditions,WindDirDegrees,DateUTC
12:51 AM,30.0,14.0,51,29.95,10.0,SSW,6.9,-,N/A,,Overcast,210,2013-02-05 05:51:00
1:51 AM,28.9,19.0,67,29.95,10.0,SSW,8.1,-,0.00,Snow,Light Snow,200,2013-02-05 06:51:00
2:51 AM,28.9,21.9,75,29.94,8.0,SSW,4.6,-,0.00,Snow,Light Snow,200,2013-02-05 07:51:00
3:05 AM,28.4,21.2,74,29.94,6.0,South,4.6,-,0.00,Snow,Light Snow,190,2013-02-05 08:05:00
3:51 AM,28.9,24.1,82,29.94,5.0,Calm,Calm,-,0.01,Snow,Light Snow,0,2013-02-05 08:51:00
4:51 AM,28.9,24.1,82,29.92,5.0,Calm,Calm,-,0.00,Snow,Light Snow,0,2013-02-05 09:51:00
5:41 AM,28.4,24.8,86,29.92,10.0,NE,3.5,-,0.00,Snow,Light Snow,50,2013-02-05 10:41:00
5:51 AM,28.9,24.1,82,29.93,6.0,NNE,5.8,-,0.00,Snow,Light Snow,30,2013-02-05 10:51:00
6:44 AM,28.4,23.0,80,29.93,4.0,NE,6.9,-,0.00,Snow,Light Snow,50,2013-02-05 11:44:00
6:51 AM,28.0,24.1,85,29.94,5.0,NE,6.9,-,0.00,Snow,Light Snow,40,2013-02-05 11:51:00
7:45 AM,28.4,23.0,80,29.95,5.0,NE,8.1,-,0.00,Snow,Light Snow,40,2013-02-05 12:45:00
7:51 AM,28.0,23.0,81,29.96,6.0,NE,9.2,-,0.00,Snow,Light Snow,40,2013-02-05 12:51:00
8:33 AM,28.4,23.0,80,29.96,6.0,NE,10.4,-,0.00,,Haze,40,2013-02-05 13:33:00
8:51 AM,28.0,23.0,81,29.96,6.0,NE,11.5,-,0.00,,Haze,40,2013-02-05 13:51:00
9:51 AM,28.9,23.0,78,29.97,9.0,NNE,10.4,-,N/A,,Overcast,30,2013-02-05 14:51:00
10:51 AM,30.0,24.1,79,29.98,8.0,NE,13.8,-,N/A,,Overcast,50,2013-02-05 15:51:00
11:51 AM,30.0,24.1,79,29.96,8.0,NE,13.8,-,N/A,,Overcast,50,2013-02-05 16:51:00
12:51 PM,30.0,24.1,79,29.95,10.0,NE,10.4,-,N/A,,Overcast,50,2013-02-05 17:51:00
1:51 PM,30.0,24.1,79,29.93,7.0,NE,10.4,-,N/A,,Overcast,50,2013-02-05 18:51:00
2:02 PM,30.2,24.8,80,29.93,2.5,ENE,9.2,-,0.00,Snow,Light Snow,60,2013-02-05 19:02:00
2:47 PM,30.2,24.8,80,29.91,5.0,ENE,9.2,-,0.00,,Haze,60,2013-02-05 19:47:00
2:51 PM,30.0,25.0,82,29.91,5.0,NE,9.2,-,0.00,,Haze,40,2013-02-05 19:51:00
3:51 PM,30.0,25.0,82,29.92,5.0,ENE,8.1,-,0.00,,Haze,60,2013-02-05 20:51:00
4:51 PM,30.0,24.1,79,29.92,10.0,NE,8.1,-,N/A,,Overcast,50,2013-02-05 21:51:00
5:51 PM,30.9,25.0,79,29.91,8.0,ENE,9.2,-,N/A,,Overcast,70,2013-02-05 22:51:00
6:47 PM,30.2,26.6,86,29.92,7.0,NE,6.9,-,N/A,,Overcast,50,2013-02-05 23:47:00
6:51 PM,30.9,26.1,82,29.92,7.0,NE,9.2,-,N/A,,Overcast,50,2013-02-05 23:51:00
7:51 PM,30.9,26.1,82,29.92,6.0,NE,6.9,-,0.00,Snow,Light Snow,40,2013-02-06 00:51:00
8:34 PM,30.2,26.6,86,29.91,2.5,ENE,6.9,-,0.01,Snow,Light Snow,70,2013-02-06 01:34:00
8:48 PM,30.2,26.6,86,29.91,3.0,ENE,6.9,-,0.01,Snow,Light Snow,70,2013-02-06 01:48:00
8:51 PM,30.9,27.0,85,29.92,3.0,ENE,5.8,-,0.01,Snow,Light Snow,70,2013-02-06 01:51:00
9:28 PM,30.2,26.6,86,29.92,6.0,East,4.6,-,0.00,,Overcast,90,2013-02-06 02:28:00
9:51 PM,30.9,27.0,85,29.92,6.0,ENE,5.8,-,0.00,,Overcast,60,2013-02-06 02:51:00
10:18 PM,30.2,28.4,93,29.92,6.0,NE,6.9,-,0.00,Snow,Light Snow,50,2013-02-06 03:18:00
10:27 PM,30.2,28.4,93,29.92,5.0,NE,6.9,-,N/A,Snow,Light Snow,50,2013-02-06 03:27:00
10:51 PM,30.9,28.0,89,29.92,4.0,NE,8.1,-,0.00,Snow,Light Snow,40,2013-02-06 03:51:00
11:51 PM,30.0,27.0,88,29.93,4.0,ENE,6.9,-,0.00,Snow,Light Snow,60,2013-02-06 04:51:00